FW1475 Weather Reports


Display with metric or nautical units.
time (UTC)temp
F
wind
direction
speed
MPH
gust
MPH
rain 1hr
in
rain 24hr
in
rain mn
in
humidity
%
barometer
mb
20260506095810 74 204 0.0 0.0 0.00 0.00 0.00 97 1008.0
20260506095306 74 200 0.0 0.0 0.00 0.00 0.00 97 1007.8
20260506094803 74 207 0.0 0.0 0.00 0.00 0.00 97 1007.8
20260506094504 74 193 0.0 0.0 0.00 0.00 0.00 97 1012.5
20260506094302 74 184 0.0 0.0 0.00 0.00 0.00 97 1008.0
20260506094004 74 198 0.0 0.0 0.00 0.00 0.00 97 1012.6
20260506093759 74 211 0.0 0.0 0.00 0.00 0.00 97 1008.1
20260506093504 74 192 0.0 0.0 0.00 0.00 0.00 97 1012.3
20260506093256 74 198 0.0 0.0 0.00 0.00 0.00 97 1008.1
20260506093005 74 225 0.0 1.0 0.00 0.00 0.00 97 1012.6
20260506092754 74 198 0.0 0.0 0.00 0.00 0.00 97 1008.2
20260506092252 74 195 0.0 0.0 0.00 0.00 0.00 97 1008.1
20260506091749 74 211 0.0 0.0 0.00 0.00 0.00 97 1008.1
20260506091504 74 189 0.0 1.0 0.00 0.00 0.00 97 1012.7
20260506091246 74 203 1.0 1.0 0.00 0.00 0.00 97 1008.0
20260506091004 74 209 0.0 2.0 0.00 0.00 0.00 97 1012.6
20260506090744 74 205 0.0 0.0 0.00 0.00 0.00 97 1007.9
20260506090241 74 195 0.0 0.0 0.00 0.00 0.00 97 1008.0
20260506085738 74 213 0.0 0.0 0.00 0.00 0.00 97 1007.9
20260506085234 74 188 0.0 0.0 0.00 0.00 0.00 97 1008.0
20260506084730 74 196 0.0 0.0 0.00 0.00 0.00 97 1007.7
20260506084504 74 193 1.0 1.0 0.00 0.00 0.00 97 1012.3
20260506084227 74 179 1.0 1.0 0.00 0.00 0.00 97 1007.7
20260506084004 74 189 0.0 1.0 0.00 0.00 0.00 97 1012.4
20260506083724 74 212 0.0 0.0 0.00 0.00 0.00 97 1007.8
20260506083504 74 175 0.0 0.0 0.00 0.00 0.00 97 1012.4
20260506083222 74 166 0.0 0.0 0.00 0.00 0.00 97 1007.7
20260506083004 74 205 0.0 1.0 0.00 0.00 0.00 97 1012.5
20260506082719 74 193 0.0 0.0 0.00 0.00 0.00 97 1007.8
20260506082214 74 195 0.0 0.0 0.00 0.00 0.00 97 1007.8
20260506081712 74 194 1.0 1.0 0.00 0.00 0.00 97 1007.7
20260506081504 74 201 0.0 1.0 0.00 0.00 0.00 97 1012.4
20260506081210 74 204 0.0 0.0 0.00 0.00 0.00 97 1007.8
20260506081004 74 189 0.0 1.0 0.00 0.00 0.00 97 1012.4
20260506080707 74 195 0.0 0.0 0.00 0.00 0.00 97 1007.9
20260506080204 74 205 0.0 0.0 0.00 0.00 0.00 97 1008.0
20260506073504 74 209 0.0 1.0 0.00 0.00 0.00 96 1012.8
20260506073148 74 205 0.0 0.0 0.00 0.00 0.00 96 1007.9
20260506073004 74 200 0.0 2.0 0.00 0.00 0.00 96 1012.4
20260506072644 75 218 0.0 1.0 0.00 0.00 0.00 96 1007.8
20260506072142 75 224 0.0 1.0 0.00 0.00 0.00 95 1007.9
20260506071640 75 196 0.0 1.0 0.00 0.00 0.00 95 1008.0
20260506071504 75 203 0.0 1.0 0.00 0.00 0.00 95 1013.0
20260506071137 75 201 1.0 1.0 0.00 0.00 0.00 95 1008.2
20260506071004 75 208 0.0 1.0 0.00 0.00 0.00 95 1012.7
20260506070634 75 183 0.0 0.0 0.00 0.00 0.00 95 1008.2
20260506070131 75 215 1.0 1.0 0.00 0.00 0.00 95 1008.3
20260506062109 75 233 1.0 1.0 0.00 0.00 0.00 94 1008.5
20260506061604 75 208 0.0 0.0 0.00 0.00 0.00 94 1008.4
20260506061504 75 211 1.0 3.0 0.00 0.00 0.00 94 1012.9
20260506061102 75 191 0.0 0.0 0.00 0.00 0.00 94 1008.2
20260506061004 75 188 1.0 2.0 0.00 0.00 0.00 94 1013.0
20260506060600 75 185 0.0 0.0 0.00 0.00 0.00 94 1008.3
20260506060504 75 198 0.0 1.0 0.00 0.00 0.00 94 1012.9
20260506051029 75 214 0.0 1.0 0.00 0.00 0.00 93 1007.9
20260506051003 75 205 1.0 2.0 0.00 0.00 0.00 93 1012.5
20260506050527 75 234 1.0 2.0 0.00 0.00 0.00 93 1007.7
20260506050503 75 180 2.0 2.0 0.00 0.00 0.00 93 1012.3
20260506045017 76 235 1.0 3.0 0.00 0.00 0.00 92 1007.5
20260506044515 76 161 2.0 2.0 0.00 0.00 0.00 92 1007.4
20260506044504 76 148 2.0 2.0 0.00 0.00 0.00 92 1012.0
20260506044012 76 146 1.0 2.0 0.00 0.00 0.00 92 1007.7
20260506044004 76 138 2.0 3.0 0.00 0.00 0.00 92 1012.3
20260506043509 76 152 1.0 2.0 0.00 0.00 0.00 92 1007.7
20260506043504 76 174 0.0 2.0 0.00 0.00 0.00 93 1012.3
20260506043007 76 185 0.0 0.0 0.00 0.00 0.00 92 1007.9
20260506043004 76 181 0.0 3.0 0.00 0.00 0.00 92 1012.4
20260506042506 76 239 3.0 3.0 0.00 0.00 0.00 92 1007.6
20260506042004 76 244 2.0 2.0 0.00 0.00 0.00 92 1007.7
20260506041504 76 205 1.0 2.0 0.00 0.00 0.00 92 1012.3
20260506041502 76 215 0.0 0.0 0.00 0.00 0.00 92 1007.7
20260506041004 76 164 1.0 2.0 0.00 0.00 0.00 92 1012.3
20260506040959 76 208 1.0 2.0 0.00 0.00 0.00 92 1007.7
20260506040503 76 182 2.0 2.0 0.00 0.00 0.00 92 1012.3
20260506040456 76 204 1.0 1.0 0.00 0.00 0.00 92 1007.8
20260506040004 76 199 0.0 2.0 0.00 0.00 0.00 92 1012.3
20260506035952 76 193 0.0 0.0 0.00 0.00 0.00 92 1007.7
20260506035449 76 215 0.0 0.0 0.00 0.00 0.00 92 1007.7
20260506034946 76 200 0.0 0.0 0.00 0.00 0.00 93 1007.6
20260506034503 76 171 1.0 2.0 0.00 0.00 0.00 93 1012.5
20260506034443 76 169 1.0 2.0 0.00 0.00 0.00 93 1008.0
20260506034004 76 193 0.0 1.0 0.00 0.00 0.00 93 1012.4
20260506033940 76 192 0.0 1.0 0.00 0.00 0.00 93 1007.8
20260506033504 76 211 1.0 2.0 0.00 0.00 0.00 93 1012.3
20260506033438 77 213 0.0 0.0 0.00 0.00 0.00 93 1007.6
20260506033004 76 210 1.0 2.0 0.00 0.00 0.00 93 1012.3
20260506032934 77 166 0.0 1.0 0.00 0.00 0.00 93 1007.8
20260506032431 77 209 0.0 0.0 0.00 0.00 0.00 93 1007.6
20260506031928 77 200 0.0 0.0 0.00 0.00 0.00 93 1007.6
20260506031503 76 219 0.0 0.0 0.00 0.00 0.00 93 1012.3
20260506031425 77 219 0.0 0.0 0.00 0.00 0.00 93 1007.7
20260506031004 77 218 1.0 2.0 0.00 0.00 0.00 93 1011.9
20260506030923 77 225 1.0 2.0 0.00 0.00 0.00 93 1007.3
20260506030421 77 200 1.0 1.0 0.00 0.00 0.00 93 1007.4
20260506030004 77 156 1.0 2.0 0.00 0.00 0.00 93 1011.8
20260506025917 77 146 1.0 1.0 0.00 0.00 0.00 93 1007.2
20260506025414 77 195 0.0 0.0 0.00 0.00 0.00 93 1007.3
20260506024911 77 180 1.0 1.0 0.00 0.00 0.00 93 1007.1
20260506024503 77 198 0.0 2.0 0.00 0.00 0.00 93 1011.7
20260506024408 77 198 0.0 0.0 0.00 0.00 0.00 93 1007.1
20260506024003 77 189 1.0 2.0 0.00 0.00 0.00 93 1011.9
20260506023904 77 220 0.0 1.0 0.00 0.00 0.00 93 1007.3
20260506023503 77 186 1.0 1.0 0.00 0.00 0.00 93 1011.7
20260506023401 77 170 1.0 1.0 0.00 0.00 0.00 93 1007.1
20260506023003 77 212 0.0 2.0 0.00 0.00 0.00 93 1011.6
20260506022857 77 215 0.0 0.0 0.00 0.00 0.00 93 1007.0
20260506022355 77 191 0.0 0.0 0.00 0.00 0.00 93 1006.8
20260506021853 77 195 0.0 0.0 0.00 0.00 0.00 93 1006.7
20260506021503 77 170 0.0 0.0 0.00 0.00 0.00 93 1011.3
20260506021350 77 158 0.0 0.0 0.00 0.00 0.00 93 1006.8
20260506021003 77 194 1.0 1.0 0.00 0.00 0.00 93 1011.3
20260506020846 77 191 0.0 0.0 0.00 0.00 0.00 93 1006.7
20260506020345 77 193 0.0 0.0 0.00 0.00 0.00 92 1006.6
20260506020004 77 202 0.0 2.0 0.00 0.00 0.00 92 1011.2
20260506015842 77 209 1.0 1.0 0.00 0.00 0.00 92 1006.6
20260506015339 77 189 0.0 1.0 0.00 0.00 0.00 92 1006.4
20260506014836 77 176 0.0 0.0 0.00 0.00 0.00 92 1006.4
20260506014503 77 235 0.0 1.0 0.00 0.00 0.00 91 1010.9
20260506014333 77 233 0.0 0.0 0.00 0.00 0.00 91 1006.3
20260506014003 77 185 1.0 1.0 0.00 0.00 0.00 91 1011.0
20260506013829 77 184 1.0 1.0 0.00 0.00 0.00 91 1006.4
20260506013503 77 196 1.0 2.0 0.00 0.00 0.00 91 1010.9
20260506013326 77 186 1.0 2.0 0.00 0.00 0.00 91 1006.0
20260506013003 77 205 1.0 1.0 0.00 0.00 0.00 91 1010.7
20260506012823 77 202 1.0 1.0 0.00 0.00 0.00 91 1006.1
20260506012320 78 189 0.0 1.0 0.00 0.00 0.00 90 1005.8
20260506011817 78 211 1.0 1.0 0.00 0.00 0.00 90 1005.6
20260506011314 78 156 0.0 0.0 0.00 0.00 0.00 89 1006.1
20260506011004 78 163 1.0 1.0 0.00 0.00 0.00 89 1010.4
20260506010811 78 194 0.0 0.0 0.00 0.00 0.00 89 1005.7
20260506010503 78 181 0.0 1.0 0.00 0.00 0.00 89 1010.4
20260506010309 78 170 0.0 0.0 0.00 0.00 0.00 89 1005.6
20260506010003 78 188 1.0 3.0 0.00 0.00 0.00 88 1010.2
20260506005806 78 206 2.0 3.0 0.00 0.00 0.00 88 1005.5
20260506005305 79 177 0.0 0.0 0.00 0.00 0.00 88 1005.5
20260506004758 79 245 1.0 2.0 0.00 0.00 0.00 87 1005.4
20260506004504 79 172 2.0 3.0 0.00 0.00 0.00 87 1010.4
20260506004257 79 228 1.0 2.0 0.00 0.00 0.00 87 1005.4
20260506004004 79 183 1.0 2.0 0.00 0.00 0.00 86 1010.0
20260506003752 79 180 1.0 1.0 0.00 0.00 0.00 86 1005.4
20260506003504 79 195 0.0 2.0 0.00 0.00 0.00 86 1010.0
20260506003249 79 149 0.0 1.0 0.00 0.00 0.00 86 1005.5
20260506003004 80 178 1.0 2.0 0.00 0.00 0.00 86 1009.9
20260506002745 80 195 1.0 1.0 0.00 0.00 0.00 86 1005.3
20260506002241 80 157 2.0 2.0 0.00 0.00 0.00 85 1005.1
20260506001737 80 208 0.0 1.0 0.00 0.00 0.00 85 1005.1
20260506001504 80 194 0.0 1.0 0.00 0.00 0.00 85 1010.1
20260506001235 80 194 0.0 1.0 0.00 0.00 0.00 84 1005.3
20260506001004 80 199 0.0 1.0 0.00 0.00 0.00 84 1009.9
20260506000732 80 188 0.0 0.0 0.00 0.00 0.00 84 1005.4
20260506000504 80 222 1.0 1.0 0.00 0.00 0.00 83 1010.2
20260506000229 80 193 0.0 1.0 0.00 0.00 0.00 83 1005.4
20260506000004 81 178 1.0 1.0 0.00 0.00 0.00 83 1010.3
20260505235726 81 174 1.0 1.0 0.00 0.00 0.00 83 1005.5
20260505235224 81 218 0.0 0.0 0.00 0.00 0.00 83 1005.5
20260505234720 81 200 0.0 0.0 0.00 0.00 0.00 82 1005.6
20260505234504 81 224 1.0 2.0 0.00 0.00 0.00 82 1010.2
20260505234218 81 217 0.0 0.0 0.00 0.00 0.00 82 1005.4
20260505234004 81 178 1.0 2.0 0.00 0.00 0.00 82 1010.1
20260505233714 81 212 0.0 0.0 0.00 0.00 0.00 82 1005.3
20260505233504 81 171 2.0 2.0 0.00 0.00 0.00 82 1010.0
20260505233212 81 217 1.0 1.0 0.00 0.00 0.00 82 1005.3
20260505233004 81 157 1.0 2.0 0.00 0.00 0.00 81 1010.1
20260505232709 81 214 0.0 0.0 0.00 0.00 0.00 82 1005.3
20260505232207 81 162 1.0 1.0 0.00 0.00 0.00 82 1005.3
20260505231703 81 247 1.0 2.0 0.00 0.00 0.00 82 1005.2
20260505231503 81 175 1.0 2.0 0.00 0.00 0.00 82 1010.0
20260505231203 81 194 0.0 0.0 0.00 0.00 0.00 82 1005.4
20260505230700 82 149 1.0 2.0 0.00 0.00 0.00 81 1005.5
20260505230503 82 215 2.0 5.0 0.00 0.00 0.00 81 1010.2
20260505230156 82 175 0.0 1.0 0.00 0.00 0.00 81 1005.6
20260505230004 82 185 0.0 2.0 0.00 0.00 0.00 80 1010.1
20260505225653 82 174 0.0 0.0 0.00 0.00 0.00 80 1005.6
20260505225149 82 165 0.0 1.0 0.00 0.00 0.00 80 1005.8
20260505224645 82 161 0.0 0.0 0.00 0.00 0.00 80 1005.4
20260505224143 82 267 3.0 5.0 0.00 0.00 0.00 79 1005.5
20260505224004 82 207 1.0 2.0 0.00 0.00 0.00 79 1010.1
20260505223635 82 156 0.0 1.0 0.00 0.00 0.00 79 1005.6
20260505223504 82 182 0.0 2.0 0.00 0.00 0.00 79 1010.4
20260505223130 83 188 0.0 1.0 0.00 0.00 0.00 78 1005.7
20260505222627 83 205 0.0 0.0 0.00 0.00 0.00 76 1005.5
20260505222123 83 235 3.0 3.0 0.00 0.00 0.00 75 1005.3
20260505221620 84 195 0.0 0.0 0.00 0.00 0.00 76 1005.5
20260505221504 83 226 1.0 2.0 0.00 0.00 0.00 76 1010.2
20260505221117 84 229 0.0 0.0 0.00 0.00 0.00 76 1005.3
20260505221003 83 205 0.0 1.0 0.00 0.00 0.00 76 1010.0
20260505220614 83 210 0.0 1.0 0.00 0.00 0.00 76 1005.3
20260505220504 83 185 1.0 3.0 0.00 0.00 0.00 75 1010.1
20260505220112 84 190 0.0 1.0 0.00 0.00 0.00 75 1005.3
20260505220004 84 188 2.0 5.0 0.00 0.00 0.00 74 1010.1
20260505215609 84 173 2.0 2.0 0.00 0.00 0.00 75 1005.4
20260505215107 83 180 1.0 1.0 0.00 0.00 0.00 77 1005.4
20260505214605 83 202 1.0 2.0 0.00 0.00 0.00 77 1005.3
20260505214503 83 215 1.0 5.0 0.00 0.00 0.00 77 1009.9
20260505214102 84 170 1.0 1.0 0.00 0.00 0.00 76 1005.3
20260505214003 84 217 1.0 5.0 0.00 0.00 0.00 75 1009.9
20260505213600 84 191 0.0 0.0 0.00 0.00 0.00 75 1005.4
20260505213503 84 227 2.0 5.0 0.00 0.00 0.00 72 1009.8
20260505213056 84 337 1.0 1.0 0.00 0.00 0.00 74 1005.3
20260505213003 84 212 1.0 3.0 0.00 0.00 0.00 74 1010.0
20260505212552 84 211 0.0 1.0 0.00 0.00 0.00 74 1005.2
20260505212050 84 216 1.0 1.0 0.00 0.00 0.00 75 1005.2
20260505211546 84 229 3.0 3.0 0.00 0.00 0.00 74 1005.5
20260505211504 84 204 1.0 2.0 0.00 0.00 0.00 74 1010.2
20260505211043 84 25 1.0 2.0 0.00 0.00 0.00 76 1005.7
20260505211004 84 182 2.0 5.0 0.00 0.00 0.00 77 1010.2
20260505210540 84 200 0.0 1.0 0.00 0.00 0.00 77 1005.5
20260505210504 83 192 1.0 2.0 0.00 0.00 0.00 77 1010.3
20260505210037 84 216 0.0 0.0 0.00 0.00 0.00 77 1005.8
20260505210003 83 216 1.0 7.0 0.00 0.00 0.00 77 1010.5
20260505205535 83 185 1.0 2.0 0.00 0.00 0.00 78 1005.7
20260505205032 84 306 5.0 6.0 0.00 0.00 0.00 77 1005.8
20260505204530 84 200 1.0 1.0 0.00 0.00 0.00 77 1006.1
20260505204503 83 254 1.0 3.0 0.00 0.00 0.00 78 1010.5
20260505204027 83 358 1.0 1.0 0.00 0.00 0.00 78 1005.9
20260505203523 83 178 2.0 3.0 0.00 0.00 0.00 78 1006.1
20260505203504 83 188 0.0 3.0 0.00 0.00 0.00 78 1010.7
20260505203020 83 235 1.0 2.0 0.00 0.00 0.00 78 1006.1
20260505203004 83 248 1.0 5.0 0.00 0.00 0.00 77 1010.7
20260505202516 84 223 1.0 1.0 0.00 0.00 0.00 76 1006.1
20260505202012 83 221 1.0 1.0 0.00 0.00 0.00 76 1006.0
20260505201510 83 196 1.0 2.0 0.00 0.00 0.00 76 1006.2
20260505201503 83 142 2.0 6.0 0.00 0.00 0.00 76 1011.0
20260505201007 83 222 1.0 1.0 0.00 0.00 0.00 76 1006.2
20260505201003 83 182 1.0 2.0 0.00 0.00 0.00 76 1011.0
20260505200505 83 350 2.0 2.0 0.00 0.00 0.00 76 1006.3
20260505200503 83 261 2.0 3.0 0.00 0.00 0.00 76 1010.9
20260505200004 83 205 1.0 5.0 0.00 0.00 0.00 76 1011.1
20260505200001 83 216 0.0 1.0 0.00 0.00 0.00 77 1006.2
20260505195458 83 206 1.0 1.0 0.00 0.00 0.00 78 1006.5
20260505194955 82 180 2.0 2.0 0.00 0.00 0.00 78 1006.2
20260505194504 83 224 3.0 6.0 0.00 0.00 0.00 77 1011.1
20260505194452 83 214 2.0 3.0 0.00 0.00 0.00 76 1006.3
20260505194004 82 191 1.0 5.0 0.00 0.00 0.00 78 1011.2
20260505193952 83 187 2.0 2.0 0.00 0.00 0.00 77 1006.5
20260505193503 83 123 2.0 7.0 0.00 0.00 0.00 77 1011.3
20260505193450 83 117 4.0 5.0 0.00 0.00 0.00 76 1006.7
20260505193004 83 169 2.0 8.0 0.00 0.00 0.00 78 1011.1
20260505192947 83 241 3.0 5.0 0.00 0.00 0.00 78 1006.5
20260505192446 82 256 4.0 5.0 0.00 0.00 0.00 80 1006.8
20260505191943 81 212 1.0 2.0 0.00 0.00 0.00 80 1006.6
20260505191442 81 168 1.0 2.0 0.00 0.00 0.00 80 1006.9
20260505191004 81 194 2.0 6.0 0.00 0.00 0.00 78 1011.3
20260505190938 81 187 1.0 2.0 0.00 0.00 0.00 79 1006.7
20260505190433 82 252 2.0 2.0 0.00 0.00 0.00 78 1006.7
20260505190004 82 195 1.0 5.0 0.00 0.00 0.00 80 1011.4
20260505185929 82 183 2.0 2.0 0.00 0.00 0.00 79 1006.6
20260505185427 81 229 0.0 1.0 0.00 0.00 0.00 81 1006.7
20260505184922 80 228 0.0 1.0 0.00 0.00 0.00 83 1006.9
20260505184503 80 250 2.0 5.0 0.00 0.00 0.00 81 1011.5
20260505184420 80 252 2.0 2.0 0.00 0.00 0.00 81 1006.8
20260505184003 80 200 0.0 2.0 0.00 0.00 0.00 82 1011.7
20260505183916 80 224 0.0 1.0 0.00 0.00 0.00 82 1007.1
20260505183503 80 184 2.0 5.0 0.00 0.00 0.00 82 1011.7
20260505183413 80 169 3.0 5.0 0.00 0.00 0.00 82 1007.0
20260505183004 80 218 0.0 3.0 0.00 0.00 0.00 84 1011.6
20260505182910 80 215 0.0 1.0 0.00 0.00 0.00 84 1007.0
20260505182407 80 132 1.0 3.0 0.00 0.00 0.00 83 1007.4
20260505181903 80 202 2.0 3.0 0.00 0.00 0.00 82 1007.3
20260505181504 80 226 1.0 3.0 0.00 0.00 0.00 83 1011.8
20260505181400 80 227 2.0 2.0 0.00 0.00 0.00 83 1007.2
20260505181003 80 181 1.0 3.0 0.00 0.00 0.00 83 1011.8
20260505180857 80 201 0.0 1.0 0.00 0.00 0.00 83 1007.2
20260505180503 80 218 1.0 2.0 0.00 0.00 0.00 82 1011.9
20260505180353 80 212 1.0 1.0 0.00 0.00 0.00 83 1007.2
20260505180003 80 181 1.0 3.0 0.00 0.00 0.00 83 1012.0
20260505175850 80 195 1.0 1.0 0.00 0.00 0.00 83 1007.4
20260505175347 79 241 1.0 1.0 0.00 0.00 0.00 85 1007.4
20260505174843 78 180 1.0 1.0 0.00 0.00 0.00 85 1007.4
20260505174504 78 207 1.0 2.0 0.00 0.00 0.00 85 1012.2
20260505174341 78 212 1.0 2.0 0.00 0.00 0.00 85 1007.5
20260505174003 78 195 1.0 2.0 0.00 0.00 0.00 86 1012.2
20260505173836 78 194 1.0 1.0 0.00 0.00 0.00 86 1007.6
20260505173504 78 237 2.0 3.0 0.00 0.00 0.00 85 1012.4
20260505173333 78 248 3.0 3.0 0.00 0.00 0.00 85 1007.9
20260505173004 78 219 1.0 5.0 0.00 0.00 0.00 86 1012.5
20260505172830 78 218 0.0 1.0 0.00 0.00 0.00 86 1007.9
20260505172328 78 213 1.0 1.0 0.00 0.00 0.00 86 1007.7
20260505171827 77 184 1.0 1.0 0.00 0.00 0.00 86 1007.6
20260505171503 77 183 1.0 3.0 0.00 0.00 0.00 85 1012.6
20260505171325 77 209 1.0 1.0 0.00 0.00 0.00 86 1007.8
20260505171004 77 221 1.0 3.0 0.00 0.00 0.00 86 1012.3
20260505170821 77 184 1.0 1.0 0.00 0.00 0.00 86 1007.7
20260505170504 77 204 1.0 2.0 0.00 0.00 0.00 86 1012.4
20260505170318 77 187 1.0 1.0 0.00 0.00 0.00 86 1007.7
20260505165813 78 220 2.0 3.0 0.00 0.00 0.00 86 1007.7
20260505165309 78 203 2.0 2.0 0.00 0.00 0.00 86 1007.6
20260505164805 78 237 1.0 3.0 0.00 0.00 0.00 85 1007.7
20260505164504 77 202 1.0 2.0 0.00 0.00 0.00 86 1012.5
20260505164302 77 212 1.0 1.0 0.00 0.00 0.00 87 1007.8
20260505164004 76 175 2.0 5.0 0.00 0.00 0.00 87 1012.4
20260505163800 77 173 3.0 5.0 0.00 0.00 0.00 86 1008.0
20260505163504 76 259 2.0 5.0 0.00 0.00 0.00 86 1012.5
20260505163259 77 164 1.0 1.0 0.00 0.00 0.00 86 1007.8
20260505163005 76 175 1.0 3.0 0.00 0.00 0.00 87 1012.5
20260505162756 76 206 1.0 1.0 0.00 0.00 0.00 87 1008.2
20260505162253 76 253 2.0 2.0 0.00 0.00 0.00 88 1007.8
20260505161750 76 152 2.0 2.0 0.00 0.00 0.00 88 1007.7
20260505161504 75 208 1.0 3.0 0.00 0.00 0.00 88 1012.3
20260505161247 75 201 1.0 1.0 0.00 0.00 0.00 88 1007.6
20260505161004 75 147 2.0 2.0 0.00 0.00 0.00 88 1012.4
20260505160744 75 219 0.0 0.0 0.00 0.00 0.00 88 1007.6
20260505160503 75 202 1.0 2.0 0.00 0.00 0.00 89 1012.5
20260505160242 75 216 1.0 1.0 0.00 0.00 0.00 89 1007.7
20260505153221 74 204 0.0 1.0 0.00 0.00 0.00 90 1007.5
20260505153004 74 128 1.0 2.0 0.00 0.00 0.00 90 1012.1
20260505152718 74 176 0.0 0.0 0.00 0.00 0.00 90 1007.6
20260505152214 74 215 1.0 1.0 0.00 0.00 0.00 91 1007.6
20260505151709 73 147 2.0 2.0 0.00 0.00 0.00 91 1007.7
20260505151207 73 214 1.0 1.0 0.00 0.00 0.00 92 1007.9
20260505151004 73 162 2.0 3.0 0.00 0.00 0.00 91 1012.1
20260505150703 73 237 2.0 2.0 0.00 0.00 0.00 92 1007.7
20260505150503 73 215 1.0 6.0 0.00 0.00 0.00 92 1012.4
20260505150200 73 239 5.0 6.0 0.00 0.00 0.00 91 1007.8
20260505140628 71 179 0.0 0.0 0.00 0.00 0.00 94 1007.8
20260505140125 71 189 0.0 1.0 0.00 0.00 0.00 94 1007.6
20260505125041 69 207 0.0 0.0 0.00 0.00 0.00 95 1007.5
20260505124538 69 224 1.0 1.0 0.00 0.00 0.00 95 1007.4
20260505124504 69 197 0.0 1.0 0.00 0.00 0.00 95 1011.8
20260505124034 69 180 1.0 1.0 0.00 0.00 0.00 95 1007.2
20260505124004 69 186 0.0 1.0 0.00 0.00 0.00 95 1011.7
20260505123531 69 195 0.0 0.0 0.00 0.00 0.00 95 1007.1
20260505123503 69 210 1.0 2.0 0.00 0.00 0.00 95 1011.7
20260505123027 69 207 0.0 1.0 0.00 0.00 0.00 95 1007.3
20260505122524 69 200 1.0 1.0 0.00 0.00 0.00 95 1007.3
20260505122021 69 178 2.0 2.0 0.00 0.00 0.00 95 1007.3
20260505121517 69 211 0.0 1.0 0.00 0.00 0.00 95 1007.4
20260505121504 69 208 0.0 2.0 0.00 0.00 0.00 95 1011.8
20260505121014 69 198 0.0 0.0 0.00 0.00 0.00 95 1007.2
20260505121004 69 170 1.0 2.0 0.00 0.00 0.00 95 1011.9
20260505120511 69 204 1.0 2.0 0.00 0.00 0.00 95 1007.4
20260505120504 69 201 1.0 2.0 0.00 0.00 0.00 95 1012.0
20260505120006 69 193 1.0 1.0 0.00 0.00 0.00 95 1007.0
20260505120004 69 186 1.0 2.0 0.00 0.00 0.00 95 1011.6
20260505115501 69 146 0.0 1.0 0.00 0.00 0.00 95 1007.0
20260505114959 69 219 0.0 1.0 0.00 0.00 0.00 95 1007.0
20260505114455 69 251 1.0 1.0 0.00 0.00 0.00 95 1007.1
20260505114004 69 177 1.0 2.0 0.00 0.00 0.00 95 1011.6
20260505113952 69 191 0.0 1.0 0.00 0.00 0.00 95 1007.0
20260505113449 69 205 1.0 1.0 0.00 0.00 0.00 95 1007.0
20260505113004 69 199 1.0 3.0 0.00 0.00 0.00 95 1011.8
20260505112944 69 168 0.0 1.0 0.00 0.00 0.00 95 1007.1
20260505112442 69 198 0.0 1.0 0.00 0.00 0.00 95 1007.3
20260505111938 68 189 0.0 0.0 0.00 0.00 0.00 95 1007.0
20260505111504 68 199 1.0 2.0 0.00 0.00 0.00 95 1011.7
20260505111432 68 175 1.0 1.0 0.00 0.00 0.00 95 1006.9
20260505111004 68 172 1.0 2.0 0.00 0.00 0.00 95 1011.7
20260505110929 68 168 0.0 1.0 0.00 0.00 0.00 95 1006.9
20260505110504 68 178 0.0 1.0 0.00 0.00 0.00 95 1011.4
20260505110426 68 185 0.0 1.0 0.00 0.00 0.00 95 1006.8
20260505101857 68 200 1.0 1.0 0.00 0.00 0.00 95 1006.7
20260505101504 68 152 2.0 5.0 0.00 0.00 0.00 94 1011.4
20260505101351 68 154 2.0 2.0 0.00 0.00 0.00 94 1006.8
20260505100848 68 186 1.0 2.0 0.00 0.00 0.00 95 1006.9
20260505100503 67 4 1.0 2.0 0.00 0.00 0.00 94 1011.5
20260505100344 68 141 0.0 1.0 0.00 0.00 0.00 94 1006.9
20260505100003 67 149 2.0 2.0 0.00 0.00 0.00 94 1011.6